Other Public Products
Issued by NWS Charleston, SC

Current Version | Previous Version | Graphics & Text | Print | Product List | Glossary On
Versions: 1 2 3 4 5 6 7 8 9 10 11 12 13 14 15 16 17 18 19 20 21 22 23 24 25 26 27 28 29 30 31 32 33 34 35 36 37 38 39 40 41 42 43 44 45 46 47 48 49 50
475
FPUS82 KCHS 230312
OPUCHS

TEST...KCHS/KSAV Gateway Observations...TEST
National Weather Service Charleston SC
1000 PM EST MON JAN 22 2018

NOTE: "fair" indicates few or no clouds below 12,000 feet with no
significant weather and/or obstructions to visibility.

SCZ050-WAZ558-NCZ071-TXZ119-213-PAZ071-DCZ001-FLZ074-172-MI076-
NYZ176-178-MAZ016-IL014-TNZ027-NJZ106-GAZ044-MD014-230400-

...Gateway Observations for Charleston International...

CITY           SKY/WX    TMP DP  RH WIND       PRES   REMARKS
Chas Airport   MOCLDY    63  60  90 S8        30.05F
Seattle        MOCLDY    42  37  82 SE7       30.27F
Charlotte      MOCLDY    58  51  78 SE15      29.96F
Dallas DFW     CLEAR     53  21  28 W10       30.10R
Dallas Love    CLEAR     51  24  34 W5        30.11R
Philladelphia  MOCLDY    46  38  73 CALM      30.02F
Wash National  CLOUDY    51  43  74 S8        29.99R
Baltimore      MOCLDY    50  42  74 SE5       30.00R
Miami          CLOUDY    76  70  82 E8        30.09R
Detroit        CLOUDY    49  45  86 SE6       29.55F
Newark         CLOUDY    40  38  93 N7        30.09F FOG     WCI  35
Laguardia      FOG       37  35  92 NE10      30.10F VSB 1/8 WCI  30
J F K          CLOUDY    42  40  92 NE6       30.11F
Boston Logan   DRIZZLE   38  38 100 E6        30.20F FOG     WCI  33
Ft. Lauderdale MOCLDY    74  70  87 E12       30.08R
Chicago O`Hare CLOUDY    41  36  82 W8        29.48F
Chicago Midway LGT RAIN  42  34  73 W14G24    29.50F
Houston Bush   PTCLDY    53  30  41 W3        30.11R
Houston Hobby  MOCLDY    53  30  41 W5        30.12R
Nashville      FAIR      59  32  36 SW10G25   29.77R
Atlanta        CLOUDY    61  61 100 S14       29.91F

$$

GAZ044-118-TXZ119-213-NCZ071-DCZ001-MDZ014-506-PAZ021-071-NJZ106-
NYZ176-178-MAZ106-OHZ011-021-055-MIZ076-KYZ091-ILZ014-INZ047-
MNZ060-ONZ431-230400-

...Gateway Observations for Savannah International...

CITY           SKY/WX    TMP DP  RH WIND       PRES   REMARKS
Savannah Arpt  CLOUDY    63  61  93 S13       30.04F
Atlanta        CLOUDY    61  61 100 S14       29.91F
Charlotte      MOCLDY    58  51  78 SE15      29.96F
Dallas DFW     CLEAR     53  21  28 W10       30.10R
Houston Bush   PTCLDY    53  30  41 W3        30.11R
Wash National  CLOUDY    51  43  74 S8        29.99R
Wash Dulles    MOCLDY    55  44  66 SE8       29.96F
Baltimore      MOCLDY    50  42  74 SE5       30.00R
Philadelphia   MOCLDY    46  38  73 CALM      30.02F
Newark         CLOUDY    40  38  93 N7        30.09F FOG     WCI  35
Laguardia      FOG       37  35  92 NE10      30.10F VSB 1/8 WCI  30
J F K          CLOUDY    42  40  92 NE6       30.11F
Boston         DRIZZLE   38  38 100 E6        30.20F FOG     WCI  33
Pittsburg      MOCLDY    55  44  66 SE9       29.71F
Akron          MOCLDY    53  46  77 S15       29.65F
Cleveland      FAIR      56  48  74 S13G23    29.63F
Cincinnati     LGT RAIN  52  46  80 W22G37    29.60R
Columbus       MOCLDY    54  48  82 S10G20    29.59F
Detroit        CLOUDY    49  45  86 SE6       29.55F
Chicago O`Hare CLOUDY    41  36  82 W8        29.48F
Minneapolis    LGT SNOW  27  26  96 N15G23    29.77R VSB 1   WCI  15
Indianapolis   MOCLDY    44  38  79 W22G35    29.60R
Toronto Canada LGT RAIN  34  32  93 E9        29.71F FOG     WCI  26

$$




USA.gov is the U.S. government's official web portal to all federal, state and local government web resources and services.